Time,TemperatureF,DewpointF,PressureIn,WindDirection,WindDirectionDegrees,WindSpeedMPH,WindSpeedGustMPH,Humidity,HourlyPrecipIn,Conditions,Clouds,dailyrainin,SoftwareType,DateUTC
2013-10-21 00:02:00,53.4,49.6,30.08,South,180,1.6,1.6,87,0.00,FEW,BKN,0.00,WeatherDisplay:10.37,2013-10-20 22:02:00,
2013-10-21 00:07:00,53.1,49.6,30.08,SW,225,2.2,2.2,88,0.00,FEW,BKN,0.00,WeatherDisplay:10.37,2013-10-20 22:07:00,
2013-10-21 00:12:00,52.9,49.4,30.07,SW,225,3.5,3.5,88,0.00,FEW,BKN,0.00,WeatherDisplay:10.37,2013-10-20 22:12:00,
2013-10-21 00:17:00,52.5,49.1,30.08,SSW,202,2.3,2.3,88,0.00,CLR,BKN,0.00,WeatherDisplay:10.37,2013-10-20 22:17:00,
2013-10-21 00:22:00,52.3,49.2,30.07,South,180,1.2,0.0,89,0.00,CLR,BKN,0.00,WeatherDisplay:10.37,2013-10-20 22:22:00,
2013-10-21 00:27:00,52.0,48.8,30.07,NE,45,1.6,1.6,89,0.00,CLR,BKN,0.00,WeatherDisplay:10.37,2013-10-20 22:27:00,
2013-10-21 00:32:00,51.8,48.7,30.08,East,90,1.2,0.0,89,0.00,CLR,BKN,0.00,WeatherDisplay:10.37,2013-10-20 22:32:00,
2013-10-21 00:37:00,51.6,48.8,30.07,East,90,0.0,0.0,90,0.00,CLR,BKN,0.00,WeatherDisplay:10.37,2013-10-20 22:37:00,
2013-10-21 00:42:00,51.3,48.4,30.08,East,90,0.0,0.0,90,0.00,CLR,BKN,0.00,WeatherDisplay:10.37,2013-10-20 22:42:00,
2013-10-21 00:47:00,51.1,48.5,30.07,East,90,0.0,0.0,91,0.00,CLR,BKN,0.00,WeatherDisplay:10.37,2013-10-20 22:47:00,
2013-10-21 00:52:00,50.9,48.4,30.08,NW,315,0.0,0.0,91,0.00,CLR,BKN,0.00,WeatherDisplay:10.37,2013-10-20 22:52:00,
2013-10-21 00:57:00,50.7,48.2,30.07,NW,315,0.0,0.0,91,0.00,CLR,BKN,0.00,WeatherDisplay:10.37,2013-10-20 22:57:00,
2013-10-21 01:02:00,50.5,48.0,30.07,South,180,0.0,0.0,91,0.00,CLR,BKN,0.00,WeatherDisplay:10.37,2013-10-20 23:02:00,
2013-10-21 01:07:00,50.4,47.8,30.07,NE,45,2.3,2.3,91,0.00,CLR,BKN,0.00,WeatherDisplay:10.37,2013-10-20 23:07:00,
2013-10-21 01:12:00,50.4,47.8,30.07,NW,315,1.2,1.2,91,0.00,CLR,BKN,0.00,WeatherDisplay:10.37,2013-10-20 23:12:00,
2013-10-21 01:17:00,50.4,48.1,30.07,SW,225,2.3,2.3,92,0.00,CLR,BKN,0.00,WeatherDisplay:10.37,2013-10-20 23:17:00,
2013-10-21 01:22:00,50.2,47.9,30.07,West,270,3.5,3.5,92,0.00,CLR,BKN,0.00,WeatherDisplay:10.37,2013-10-20 23:22:00,
2013-10-21 01:27:00,50.4,48.1,30.06,SW,225,2.3,2.3,92,0.00,CLR,BKN,0.00,WeatherDisplay:10.37,2013-10-20 23:27:00,
2013-10-21 01:32:00,50.4,48.1,30.07,West,270,2.3,2.3,92,0.00,CLR,BKN,0.00,WeatherDisplay:10.37,2013-10-20 23:32:00,
2013-10-21 01:37:00,50.2,47.9,30.07,North,0,2.3,2.3,92,0.00,CLR,BKN,0.00,WeatherDisplay:10.37,2013-10-20 23:37:00,
2013-10-21 01:42:00,50.2,48.2,30.06,West,270,1.2,0.0,93,0.00,CLR,BKN,0.00,WeatherDisplay:10.37,2013-10-20 23:42:00,
2013-10-21 01:47:00,50.0,48.1,30.07,NW,315,1.6,1.6,93,0.00,CLR,BKN,0.00,WeatherDisplay:10.37,2013-10-20 23:47:00,
2013-10-21 01:52:00,50.0,48.1,30.06,NW,315,1.2,0.0,93,0.00,CLR,BKN,0.00,WeatherDisplay:10.37,2013-10-20 23:52:00,
2013-10-21 01:57:00,50.0,48.1,30.06,NW,315,0.0,0.0,93,0.00,CLR,BKN,0.00,WeatherDisplay:10.37,2013-10-20 23:57:00,
2013-10-21 02:02:00,49.8,48.2,30.06,NW,315,0.0,0.0,94,0.00,CLR,BKN,0.00,WeatherDisplay:10.37,2013-10-21 00:02:00,
2013-10-21 02:07:00,49.5,47.8,30.06,South,180,0.0,0.0,94,0.00,CLR,BKN,0.00,WeatherDisplay:10.37,2013-10-21 00:07:00,
2013-10-21 02:12:00,49.3,47.6,30.07,South,180,0.0,0.0,94,0.00,CLR,BKN,0.00,WeatherDisplay:10.37,2013-10-21 00:12:00,
2013-10-21 02:17:00,49.1,47.4,30.07,SSW,202,1.6,0.0,94,0.00,CLR,BKN,0.00,WeatherDisplay:10.37,2013-10-21 00:17:00,
2013-10-21 02:22:00,48.9,47.3,30.06,South,180,2.2,2.2,94,0.00,CLR,BKN,0.00,WeatherDisplay:10.37,2013-10-21 00:22:00,
2013-10-21 02:27:00,48.9,47.3,30.07,South,180,2.3,2.3,94,0.00,CLR,BKN,0.00,WeatherDisplay:10.37,2013-10-21 00:27:00,
2013-10-21 02:32:00,48.7,47.1,30.07,SW,225,2.3,2.3,94,0.00,CLR,BKN,0.00,WeatherDisplay:10.37,2013-10-21 00:32:00,
2013-10-21 02:37:00,48.6,46.9,30.07,NW,315,1.6,1.6,94,0.00,CLR,BKN,0.00,WeatherDisplay:10.37,2013-10-21 00:37:00,
2013-10-21 02:42:00,48.6,46.9,30.06,NW,315,1.6,1.6,94,0.00,CLR,BKN,0.00,WeatherDisplay:10.37,2013-10-21 00:42:00,
2013-10-21 02:47:00,48.6,47.2,30.07,NW,315,1.6,1.6,95,0.00,CLR,BKN,0.00,WeatherDisplay:10.37,2013-10-21 00:47:00,
2013-10-21 02:52:00,48.6,47.2,30.06,NW,315,0.7,0.0,95,0.00,CLR,BKN,0.00,WeatherDisplay:10.37,2013-10-21 00:52:00,
2013-10-21 02:57:00,48.6,47.2,30.06,SW,225,1.2,0.0,95,0.00,CLR,BKN,0.00,WeatherDisplay:10.37,2013-10-21 00:57:00,
2013-10-21 03:02:00,48.4,47.0,30.06,NE,45,1.6,1.6,95,0.00,CLR,BKN,0.00,WeatherDisplay:10.37,2013-10-21 01:02:00,
2013-10-21 03:07:00,48.2,46.8,30.06,East,90,2.3,2.3,95,0.00,CLR,BKN,0.00,WeatherDisplay:10.37,2013-10-21 01:07:00,
2013-10-21 03:12:00,48.0,46.9,30.06,East,90,2.2,2.2,96,0.00,CLR,BKN,0.00,WeatherDisplay:10.37,2013-10-21 01:12:00,
2013-10-21 03:17:00,48.0,46.9,30.07,East,90,1.2,0.0,96,0.00,CLR,BKN,0.00,WeatherDisplay:10.37,2013-10-21 01:17:00,
2013-10-21 03:22:00,47.8,46.8,30.06,East,90,1.2,0.0,96,0.00,CLR,BKN,0.00,WeatherDisplay:10.37,2013-10-21 01:22:00,
2013-10-21 03:27:00,47.8,46.8,30.06,East,90,1.2,0.0,96,0.00,CLR,BKN,0.00,WeatherDisplay:10.37,2013-10-21 01:27:00,
2013-10-21 03:32:00,47.7,46.6,30.06,East,90,0.0,0.0,96,0.00,CLR,BKN,0.00,WeatherDisplay:10.37,2013-10-21 01:32:00,
2013-10-21 03:37:00,47.7,46.6,30.06,NW,315,1.2,0.0,96,0.00,CLR,BKN,0.00,WeatherDisplay:10.37,2013-10-21 01:37:00,
2013-10-21 03:42:00,47.7,46.6,30.06,NW,315,1.6,1.6,96,0.00,CLR,BKN,0.00,WeatherDisplay:10.37,2013-10-21 01:42:00,
2013-10-21 03:47:00,47.7,46.9,30.06,SW,225,1.2,0.0,97,0.00,CLR,BKN,0.00,WeatherDisplay:10.37,2013-10-21 01:47:00,
2013-10-21 03:52:00,47.7,46.9,30.07,SW,225,1.2,0.0,97,0.00,CLR,BKN,0.00,WeatherDisplay:10.37,2013-10-21 01:52:00,
2013-10-21 03:57:00,47.5,46.7,30.07,West,270,1.2,0.0,97,0.00,CLR,BKN,0.00,WeatherDisplay:10.37,2013-10-21 01:57:00,
2013-10-21 04:02:00,47.5,46.7,30.07,West,270,0.0,0.0,97,0.00,CLR,BKN,0.00,WeatherDisplay:10.37,2013-10-21 02:02:00,
2013-10-21 04:07:00,47.5,46.7,30.06,East,90,1.6,0.0,97,0.00,CLR,BKN,0.00,WeatherDisplay:10.37,2013-10-21 02:07:00,
2013-10-21 04:12:00,47.5,46.7,30.06,East,90,1.6,1.6,97,0.00,CLR,BKN,0.00,WeatherDisplay:10.37,2013-10-21 02:12:00,
2013-10-21 04:17:00,47.5,46.7,30.06,East,90,1.2,0.0,97,0.00,CLR,BKN,0.00,WeatherDisplay:10.37,2013-10-21 02:17:00,
2013-10-21 04:22:00,47.5,46.7,30.06,SE,135,1.6,1.6,97,0.00,CLR,BKN,0.00,WeatherDisplay:10.37,2013-10-21 02:22:00,
2013-10-21 04:27:00,47.5,46.7,30.06,SE,135,1.2,1.2,97,0.00,CLR,BKN,0.00,WeatherDisplay:10.37,2013-10-21 02:27:00,
2013-10-21 04:32:00,47.7,46.9,30.06,NE,45,1.6,0.0,97,0.00,CLR,BKN,0.00,WeatherDisplay:10.37,2013-10-21 02:32:00,
2013-10-21 04:37:00,47.7,47.1,30.06,SE,135,1.6,0.0,98,0.00,CLR,BKN,0.00,WeatherDisplay:10.37,2013-10-21 02:37:00,
2013-10-21 04:42:00,47.7,47.1,30.06,SE,135,1.6,1.6,98,0.00,CLR,BKN,0.00,WeatherDisplay:10.37,2013-10-21 02:42:00,
2013-10-21 04:47:00,47.7,47.1,30.06,NE,45,2.3,2.3,98,0.00,CLR,BKN,0.00,WeatherDisplay:10.37,2013-10-21 02:47:00,
2013-10-21 04:52:00,47.8,47.3,30.06,SW,225,1.2,0.0,98,0.00,CLR,BKN,0.00,WeatherDisplay:10.37,2013-10-21 02:52:00,
2013-10-21 04:57:00,47.8,47.3,30.07,North,0,1.6,1.6,98,0.00,CLR,BKN,0.00,WeatherDisplay:10.37,2013-10-21 02:57:00,
2013-10-21 05:02:00,47.8,47.3,30.07,NW,315,1.2,0.0,98,0.00,CLR,BKN,0.00,WeatherDisplay:10.37,2013-10-21 03:02:00,
2013-10-21 05:07:00,47.8,47.3,30.07,NW,315,0.0,0.0,98,0.00,CLR,BKN,0.00,WeatherDisplay:10.37,2013-10-21 03:07:00,
2013-10-21 05:12:00,48.0,47.5,30.07,NW,315,1.6,1.6,98,0.00,CLR,BKN,0.00,WeatherDisplay:10.37,2013-10-21 03:12:00,
2013-10-21 05:17:00,48.0,47.5,30.06,North,0,2.3,0.0,98,0.00,CLR,BKN,0.00,WeatherDisplay:10.37,2013-10-21 03:17:00,
2013-10-21 05:22:00,48.0,47.5,30.07,SE,135,1.6,1.6,98,0.00,CLR,BKN,0.00,WeatherDisplay:10.37,2013-10-21 03:22:00,
2013-10-21 05:27:00,48.0,47.5,30.07,SE,135,1.2,0.0,98,0.00,CLR,BKN,0.00,WeatherDisplay:10.37,2013-10-21 03:27:00,
2013-10-21 05:32:00,48.0,47.8,30.06,NW,315,3.1,3.1,99,0.00,CLR,BKN,0.00,WeatherDisplay:10.37,2013-10-21 03:32:00,
2013-10-21 05:37:00,48.0,47.8,30.06,North,0,3.5,3.5,99,0.00,CLR,BKN,0.00,WeatherDisplay:10.37,2013-10-21 03:37:00,
2013-10-21 05:42:00,48.0,47.8,30.07,North,0,3.5,3.5,99,0.00,CLR,BKN,0.00,WeatherDisplay:10.37,2013-10-21 03:42:00,
2013-10-21 05:47:00,48.2,47.7,30.07,NE,45,1.6,1.6,98,0.00,CLR,BKN,0.00,WeatherDisplay:10.37,2013-10-21 03:47:00,
2013-10-21 05:52:00,48.2,47.7,30.07,NE,45,1.2,0.0,98,0.00,CLR,BKN,0.00,WeatherDisplay:10.37,2013-10-21 03:52:00,
2013-10-21 05:57:00,48.2,47.7,30.07,SE,135,1.6,1.6,98,0.00,CLR,BKN,0.00,WeatherDisplay:10.37,2013-10-21 03:57:00,
2013-10-21 06:01:00,48.0,47.8,30.07,SE,135,2.3,2.3,99,0.00,CLR,BKN,0.00,WeatherDisplay:10.37,2013-10-21 04:01:00,
2013-10-21 06:02:00,48.0,47.8,30.07,SE,135,1.6,1.6,99,0.00,CLR,BKN,0.00,WeatherDisplay:10.37,2013-10-21 04:02:00,
2013-10-21 06:03:00,48.0,47.8,30.07,SE,135,1.6,1.6,99,0.00,CLR,BKN,0.00,WeatherDisplay:10.37,2013-10-21 04:03:00,
2013-10-21 06:04:00,48.0,47.8,30.07,SE,135,1.6,1.6,99,0.00,CLR,BKN,0.00,WeatherDisplay:10.37,2013-10-21 04:04:00,
2013-10-21 06:05:00,48.0,47.8,30.07,SE,125,1.0,2.0,99,0.00,CLR,BKN,0.00,WeatherDisplay:10.37,2013-10-21 04:05:00,
2013-10-21 06:06:00,48.0,47.8,30.08,SE,135,1.6,1.6,99,0.00,CLR,BKN,0.00,WeatherDisplay:10.37,2013-10-21 04:06:00,
2013-10-21 06:11:00,47.8,47.6,30.07,NE,45,1.6,1.6,99,0.00,CLR,BKN,0.00,WeatherDisplay:10.37,2013-10-21 04:11:00,
2013-10-21 06:16:00,47.8,47.6,30.06,SE,135,2.3,2.3,99,0.00,CLR,BKN,0.00,WeatherDisplay:10.37,2013-10-21 04:16:00,
2013-10-21 06:21:00,47.7,47.4,30.07,SE,135,1.2,0.0,99,0.00,CLR,BKN,0.00,WeatherDisplay:10.37,2013-10-21 04:21:00,
2013-10-21 06:26:00,47.8,47.6,30.06,NE,45,1.2,0.0,99,0.00,CLR,BKN,0.00,WeatherDisplay:10.37,2013-10-21 04:26:00,
2013-10-21 06:31:00,47.8,47.6,30.07,NW,315,0.7,0.0,99,0.00,CLR,BKN,0.00,WeatherDisplay:10.37,2013-10-21 04:31:00,
2013-10-21 06:36:00,47.8,47.6,30.06,North,0,2.2,2.2,99,0.00,CLR,BKN,0.00,WeatherDisplay:10.37,2013-10-21 04:36:00,
2013-10-21 06:41:00,48.0,47.8,30.06,West,270,1.2,0.0,99,0.00,CLR,BKN,0.00,WeatherDisplay:10.37,2013-10-21 04:41:00,
2013-10-21 06:46:00,48.0,47.8,30.07,NW,315,2.3,2.3,99,0.00,CLR,BKN,0.00,WeatherDisplay:10.37,2013-10-21 04:46:00,
2013-10-21 06:51:00,48.0,47.8,30.07,West,270,1.2,0.0,99,0.00,CLR,BKN,0.00,WeatherDisplay:10.37,2013-10-21 04:51:00,
2013-10-21 06:56:00,48.2,47.7,30.06,East,90,1.6,1.6,98,0.00,CLR,BKN,0.00,WeatherDisplay:10.37,2013-10-21 04:56:00,
2013-10-21 07:01:00,48.2,47.7,30.07,SE,135,1.2,0.0,98,0.00,CLR,BKN,0.00,WeatherDisplay:10.37,2013-10-21 05:01:00,
2013-10-21 07:06:00,48.2,47.7,30.07,South,180,1.6,1.6,98,0.00,CLR,BKN,0.00,WeatherDisplay:10.37,2013-10-21 05:06:00,
2013-10-21 07:11:00,48.2,47.7,30.08,SSW,202,1.6,1.6,98,0.00,CLR,BKN,0.00,WeatherDisplay:10.37,2013-10-21 05:11:00,
2013-10-21 07:16:00,48.4,47.8,30.08,South,180,1.2,0.0,98,0.00,CLR,BKN,0.00,WeatherDisplay:10.37,2013-10-21 05:16:00,
2013-10-21 07:21:00,48.4,48.1,30.08,SW,225,1.6,1.6,99,0.00,CLR,BKN,0.00,WeatherDisplay:10.37,2013-10-21 05:21:00,
2013-10-21 07:26:00,48.6,48.3,30.08,South,180,2.3,2.3,99,0.00,CLR,BKN,0.00,WeatherDisplay:10.37,2013-10-21 05:26:00,
2013-10-21 07:31:00,48.6,48.3,30.09,NE,45,0.0,0.0,99,0.00,CLR,BKN,0.00,WeatherDisplay:10.37,2013-10-21 05:31:00,
2013-10-21 07:36:00,48.7,48.5,30.08,NE,45,0.0,0.0,99,0.00,CLR,BKN,0.00,WeatherDisplay:10.37,2013-10-21 05:36:00,
2013-10-21 07:41:00,48.7,48.5,30.09,NE,45,1.6,1.6,99,0.00,CLR,BKN,0.00,WeatherDisplay:10.37,2013-10-21 05:41:00,
2013-10-21 07:46:00,48.9,48.7,30.08,East,90,1.6,1.6,99,0.00,CLR,BKN,0.00,WeatherDisplay:10.37,2013-10-21 05:46:00,
2013-10-21 07:51:00,48.9,48.7,30.09,East,90,2.3,2.3,99,0.00,CLR,BKN,0.00,WeatherDisplay:10.37,2013-10-21 05:51:00,
2013-10-21 07:56:00,48.9,48.7,30.09,East,90,2.3,2.3,99,0.00,CLR,BKN,0.00,WeatherDisplay:10.37,2013-10-21 05:56:00,
2013-10-21 08:01:00,48.9,48.7,30.10,East,90,1.2,0.0,99,0.00,CLR,BKN,0.00,WeatherDisplay:10.37,2013-10-21 06:01:00,
2013-10-21 08:06:00,48.9,48.7,30.10,East,90,1.2,0.0,99,0.00,CLR,BKN,0.00,WeatherDisplay:10.37,2013-10-21 06:06:00,
2013-10-21 08:11:00,49.1,48.8,30.10,NE,45,1.2,1.2,99,0.00,CLR,BKN,0.00,WeatherDisplay:10.37,2013-10-21 06:11:00,
2013-10-21 08:16:00,49.3,49.0,30.10,NE,45,1.2,0.0,99,0.00,CLR,BKN,0.00,WeatherDisplay:10.37,2013-10-21 06:16:00,
2013-10-21 08:21:00,49.3,49.0,30.10,NE,45,1.2,0.0,99,0.00,CLR,BKN,0.00,WeatherDisplay:10.37,2013-10-21 06:21:00,
2013-10-21 08:26:00,49.5,49.2,30.11,NE,45,0.0,0.0,99,0.00,CLR,BKN,0.00,WeatherDisplay:10.37,2013-10-21 06:26:00,
2013-10-21 08:31:00,49.6,49.4,30.10,NE,45,0.0,0.0,99,0.00,CLR,BKN,0.00,WeatherDisplay:10.37,2013-10-21 06:31:00,
2013-10-21 08:36:00,49.8,49.6,30.10,East,90,1.2,0.0,99,0.00,CLR,BKN,0.00,WeatherDisplay:10.37,2013-10-21 06:36:00,
2013-10-21 08:41:00,50.0,49.7,30.10,East,90,0.0,0.0,99,0.00,CLR,BKN,0.00,WeatherDisplay:10.37,2013-10-21 06:41:00,
2013-10-21 08:46:00,50.2,49.9,30.11,SE,135,1.2,0.0,99,0.00,CLR,BKN,0.00,WeatherDisplay:10.37,2013-10-21 06:46:00,
2013-10-21 08:51:00,50.4,50.1,30.11,SE,135,1.2,0.0,99,0.00,CLR,BKN,0.00,WeatherDisplay:10.37,2013-10-21 06:51:00,
2013-10-21 08:56:00,50.5,50.3,30.11,NE,45,1.2,0.0,99,0.00,CLR,BKN,0.00,WeatherDisplay:10.37,2013-10-21 06:56:00,
2013-10-21 09:01:00,50.7,50.4,30.11,North,0,1.6,1.6,99,0.00,CLR,BKN,0.00,WeatherDisplay:10.37,2013-10-21 07:01:00,
2013-10-21 09:06:00,51.1,50.8,30.11,North,0,2.3,0.0,99,0.00,CLR,BKN,0.00,WeatherDisplay:10.37,2013-10-21 07:06:00,
2013-10-21 09:11:00,51.3,51.0,30.11,NE,45,1.6,1.6,99,0.00,CLR,BKN,0.00,WeatherDisplay:10.37,2013-10-21 07:11:00,
2013-10-21 09:16:00,51.4,51.2,30.11,NE,45,1.2,0.0,99,0.00,CLR,BKN,0.00,WeatherDisplay:10.37,2013-10-21 07:16:00,
2013-10-21 09:21:00,51.8,51.3,30.11,NE,45,1.6,1.6,98,0.00,CLR,BKN,0.00,WeatherDisplay:10.37,2013-10-21 07:21:00,
2013-10-21 09:26:00,52.0,51.4,30.11,South,180,1.2,1.2,98,0.00,CLR,BKN,0.00,WeatherDisplay:10.37,2013-10-21 07:26:00,
2013-10-21 09:31:00,52.3,51.8,30.11,NE,45,1.2,0.0,98,0.00,CLR,BKN,0.00,WeatherDisplay:10.37,2013-10-21 07:31:00,
2013-10-21 09:36:00,52.5,52.0,30.11,NE,45,2.2,2.2,98,0.00,CLR,BKN,0.00,WeatherDisplay:10.37,2013-10-21 07:36:00,
2013-10-21 09:41:00,52.9,52.3,30.11,NE,45,2.3,2.3,98,0.00,CLR,BKN,0.00,WeatherDisplay:10.37,2013-10-21 07:41:00,
2013-10-21 09:46:00,53.2,52.7,30.11,North,0,2.3,2.3,98,0.00,CLR,BKN,0.00,WeatherDisplay:10.37,2013-10-21 07:46:00,
2013-10-21 09:51:00,53.4,52.9,30.11,NE,45,1.2,0.0,98,0.00,CLR,BKN,0.00,WeatherDisplay:10.37,2013-10-21 07:51:00,
2013-10-21 09:56:00,53.8,52.9,30.11,SE,135,1.6,1.6,97,0.00,CLR,BKN,0.00,WeatherDisplay:10.37,2013-10-21 07:56:00,
2013-10-21 10:01:00,54.0,53.1,30.12,North,0,1.6,1.6,97,0.00,CLR,BKN,0.00,WeatherDisplay:10.37,2013-10-21 08:01:00,
2013-10-21 10:06:00,54.3,53.5,30.12,North,0,3.5,3.5,97,0.00,CLR,BKN,0.00,WeatherDisplay:10.37,2013-10-21 08:06:00,
2013-10-21 10:11:00,54.5,53.4,30.11,NE,45,2.3,2.3,96,0.00,CLR,BKN,0.00,WeatherDisplay:10.37,2013-10-21 08:11:00,
2013-10-21 10:16:00,54.7,53.6,30.12,SW,225,1.2,0.0,96,0.00,CLR,BKN,0.00,WeatherDisplay:10.37,2013-10-21 08:16:00,
2013-10-21 10:21:00,55.2,54.1,30.12,SW,225,2.2,2.2,96,0.00,CLR,BKN,0.00,WeatherDisplay:10.37,2013-10-21 08:21:00,
2013-10-21 10:26:00,55.6,54.2,30.12,SE,135,2.3,2.3,95,0.00,CLR,BKN,0.00,WeatherDisplay:10.37,2013-10-21 08:26:00,
2013-10-21 10:31:00,55.9,54.2,30.12,South,180,1.6,1.6,94,0.00,CLR,BKN,0.00,WeatherDisplay:10.37,2013-10-21 08:31:00,
2013-10-21 10:36:00,56.1,54.4,30.12,SE,135,2.3,0.0,94,0.00,CLR,BKN,0.00,WeatherDisplay:10.37,2013-10-21 08:36:00,
2013-10-21 10:41:00,56.5,54.5,30.12,East,90,1.6,1.6,93,0.00,CLR,BKN,0.00,WeatherDisplay:10.37,2013-10-21 08:41:00,
2013-10-21 10:46:00,56.8,54.8,30.12,South,180,2.3,2.3,93,0.00,CLR,BKN,0.00,WeatherDisplay:10.37,2013-10-21 08:46:00,
2013-10-21 10:51:00,57.2,54.9,30.12,South,180,2.3,2.3,92,0.00,CLR,BKN,0.00,WeatherDisplay:10.37,2013-10-21 08:51:00,
2013-10-21 10:56:00,57.6,55.0,30.12,South,180,1.6,1.6,91,0.00,CLR,BKN,0.00,WeatherDisplay:10.37,2013-10-21 08:56:00,
2013-10-21 11:01:00,58.1,55.2,30.12,SE,135,3.5,3.5,90,0.00,CLR,BKN,0.00,WeatherDisplay:10.37,2013-10-21 09:01:00,
2013-10-21 11:06:00,58.5,55.2,30.12,NE,45,2.3,2.3,89,0.00,CLR,BKN,0.00,WeatherDisplay:10.37,2013-10-21 09:06:00,
2013-10-21 11:11:00,58.6,55.4,30.12,NE,45,3.5,3.5,89,0.00,CLR,BKN,0.00,WeatherDisplay:10.37,2013-10-21 09:11:00,
2013-10-21 11:16:00,58.8,55.3,30.12,SW,225,3.5,0.0,88,0.00,CLR,BKN,0.00,WeatherDisplay:10.37,2013-10-21 09:16:00,
2013-10-21 11:21:00,59.0,55.1,30.13,NE,45,2.3,2.3,87,0.00,CLR,BKN,0.00,WeatherDisplay:10.37,2013-10-21 09:21:00,
2013-10-21 11:26:00,59.2,55.0,30.12,South,180,1.2,0.0,86,0.00,CLR,BKN,0.00,WeatherDisplay:10.37,2013-10-21 09:26:00,
2013-10-21 11:31:00,59.4,55.2,30.12,NE,45,2.3,2.3,86,0.00,CLR,BKN,0.00,WeatherDisplay:10.37,2013-10-21 09:31:00,
2013-10-21 11:36:00,59.5,55.3,30.12,SW,225,2.3,2.3,86,0.00,CLR,BKN,0.00,WeatherDisplay:10.37,2013-10-21 09:36:00,
2013-10-21 11:41:00,59.9,55.7,30.12,North,0,3.5,3.5,86,0.00,CLR,BKN,0.00,WeatherDisplay:10.37,2013-10-21 09:41:00,
2013-10-21 11:46:00,60.3,55.7,30.12,West,270,1.6,1.6,85,0.00,CLR,BKN,0.00,WeatherDisplay:10.37,2013-10-21 09:46:00,
2013-10-21 11:51:00,60.6,56.1,30.12,NNW,338,1.6,1.6,85,0.00,CLR,BKN,0.00,WeatherDisplay:10.37,2013-10-21 09:51:00,
2013-10-21 11:56:00,60.8,55.6,30.11,South,180,1.6,1.6,83,0.00,CLR,BKN,0.00,WeatherDisplay:10.37,2013-10-21 09:56:00,
2013-10-21 12:01:00,61.0,55.8,30.12,South,180,2.3,2.3,83,0.00,CLR,BKN,0.00,WeatherDisplay:10.37,2013-10-21 10:01:00,
2013-10-21 12:06:00,61.0,55.8,30.12,South,180,2.3,2.3,83,0.00,CLR,BKN,0.00,WeatherDisplay:10.37,2013-10-21 10:06:00,
2013-10-21 12:11:00,61.5,56.0,30.11,North,0,3.5,3.5,82,0.00,CLR,BKN,0.00,WeatherDisplay:10.37,2013-10-21 10:11:00,
2013-10-21 12:16:00,61.7,56.1,30.12,SE,135,3.5,3.5,82,0.00,CLR,BKN,0.00,WeatherDisplay:10.37,2013-10-21 10:16:00,
2013-10-21 12:21:00,62.2,56.3,30.11,NW,315,3.5,3.5,81,0.00,CLR,BKN,0.00,WeatherDisplay:10.37,2013-10-21 10:21:00,
2013-10-21 12:26:00,62.4,56.5,30.11,North,0,3.5,3.5,81,0.00,CLR,BKN,0.00,WeatherDisplay:10.37,2013-10-21 10:26:00,
2013-10-21 12:31:00,62.4,56.2,30.11,NW,315,3.5,3.5,80,0.00,CLR,BKN,0.00,WeatherDisplay:10.37,2013-10-21 10:31:00,
2013-10-21 12:36:00,62.4,56.2,30.11,West,270,2.3,0.0,80,0.00,CLR,BKN,0.00,WeatherDisplay:10.37,2013-10-21 10:36:00,
2013-10-21 12:41:00,62.6,56.0,30.11,NW,315,3.5,3.5,79,0.00,CLR,BKN,0.00,WeatherDisplay:10.37,2013-10-21 10:41:00,
2013-10-21 12:46:00,62.8,56.2,30.11,West,270,3.5,3.5,79,0.00,CLR,BKN,0.00,WeatherDisplay:10.37,2013-10-21 10:46:00,
2013-10-21 12:51:00,63.1,56.5,30.11,West,270,2.3,2.3,79,0.00,CLR,BKN,0.00,WeatherDisplay:10.37,2013-10-21 10:51:00,
2013-10-21 12:56:00,63.5,56.9,30.11,NE,45,3.5,3.5,79,0.00,CLR,BKN,0.00,WeatherDisplay:10.37,2013-10-21 10:56:00,
2013-10-21 13:01:00,63.9,56.9,30.11,NE,45,2.3,2.3,78,0.00,CLR,BKN,0.00,WeatherDisplay:10.37,2013-10-21 11:01:00,
2013-10-21 13:06:00,64.2,57.2,30.11,NW,315,3.8,3.8,78,0.00,CLR,BKN,0.00,WeatherDisplay:10.37,2013-10-21 11:06:00,
2013-10-21 13:11:00,64.6,56.8,30.11,WSW,248,2.3,2.3,76,0.00,CLR,BKN,0.00,WeatherDisplay:10.37,2013-10-21 11:11:00,
2013-10-21 13:16:00,64.8,57.0,30.11,NW,315,3.8,3.8,76,0.00,CLR,BKN,0.00,WeatherDisplay:10.37,2013-10-21 11:16:00,
2013-10-21 13:21:00,65.1,57.4,30.11,NW,315,3.1,3.1,76,0.00,CLR,BKN,0.00,WeatherDisplay:10.37,2013-10-21 11:21:00,
2013-10-21 13:26:00,65.1,57.0,30.11,South,180,3.5,3.5,75,0.00,CLR,BKN,0.00,WeatherDisplay:10.37,2013-10-21 11:26:00,
2013-10-21 13:31:00,65.7,57.1,30.11,South,180,3.5,3.5,74,0.00,CLR,BKN,0.00,WeatherDisplay:10.37,2013-10-21 11:31:00,
2013-10-21 13:36:00,65.8,56.9,30.10,SW,225,2.3,2.3,73,0.00,CLR,BKN,0.00,WeatherDisplay:10.37,2013-10-21 11:36:00,
2013-10-21 13:41:00,66.4,57.5,30.11,West,270,3.5,3.5,73,0.00,CLR,BKN,0.00,WeatherDisplay:10.37,2013-10-21 11:41:00,
2013-10-21 13:46:00,66.6,57.3,30.10,SW,225,3.5,3.5,72,0.00,CLR,BKN,0.00,WeatherDisplay:10.37,2013-10-21 11:46:00,
2013-10-21 13:51:00,66.7,57.0,30.10,SSW,202,5.8,5.8,71,0.00,CLR,BKN,0.00,WeatherDisplay:10.37,2013-10-21 11:51:00,
2013-10-21 13:56:00,66.9,56.4,30.10,South,180,4.5,4.5,69,0.00,CLR,BKN,0.00,WeatherDisplay:10.37,2013-10-21 11:56:00,
2013-10-21 14:01:00,67.1,56.2,30.09,SW,225,4.6,4.6,68,0.00,CLR,BKN,0.00,WeatherDisplay:10.37,2013-10-21 12:01:00,
2013-10-21 14:06:00,67.1,56.2,30.10,SW,225,3.8,3.8,68,0.00,CLR,BKN,0.00,WeatherDisplay:10.37,2013-10-21 12:06:00,
2013-10-21 14:11:00,67.5,56.9,30.09,SW,225,5.8,5.8,69,0.00,CLR,BKN,0.00,WeatherDisplay:10.37,2013-10-21 12:11:00,
2013-10-21 14:16:00,67.8,56.9,30.10,SW,225,6.9,6.9,68,0.00,CLR,BKN,0.00,WeatherDisplay:10.37,2013-10-21 12:16:00,
2013-10-21 14:21:00,68.0,56.2,30.10,West,270,4.5,4.5,66,0.00,CLR,BKN,0.00,WeatherDisplay:10.37,2013-10-21 12:21:00,
2013-10-21 14:26:00,68.4,56.1,30.09,West,270,5.8,5.8,65,0.00,CLR,BKN,0.00,WeatherDisplay:10.37,2013-10-21 12:26:00,
2013-10-21 14:31:00,68.5,56.7,30.09,South,180,5.4,5.4,66,0.00,CLR,BKN,0.00,WeatherDisplay:10.37,2013-10-21 12:31:00,
2013-10-21 14:36:00,68.7,56.9,30.10,South,180,4.6,4.6,66,0.00,CLR,BKN,0.00,WeatherDisplay:10.37,2013-10-21 12:36:00,
2013-10-21 14:41:00,68.7,56.9,30.09,SW,225,3.8,3.8,66,0.00,CLR,BKN,0.00,WeatherDisplay:10.37,2013-10-21 12:41:00,
2013-10-21 14:46:00,68.7,56.5,30.09,South,180,3.8,3.8,65,0.00,CLR,BKN,0.00,WeatherDisplay:10.37,2013-10-21 12:46:00,
2013-10-21 14:51:00,68.9,56.6,30.09,SW,225,5.8,5.8,65,0.00,CLR,BKN,0.00,WeatherDisplay:10.37,2013-10-21 12:51:00,
2013-10-21 14:56:00,69.1,56.8,30.09,South,180,6.9,6.9,65,0.00,CLR,BKN,0.00,WeatherDisplay:10.37,2013-10-21 12:56:00,
2013-10-21 15:01:00,69.3,56.6,30.09,East,90,5.8,5.8,64,0.00,CLR,BKN,0.00,WeatherDisplay:10.37,2013-10-21 13:01:00,
2013-10-21 15:06:00,69.3,57.0,30.09,South,180,6.0,6.0,65,0.00,CLR,BKN,0.00,WeatherDisplay:10.37,2013-10-21 13:06:00,
2013-10-21 15:12:00,69.3,56.6,30.09,South,180,4.6,4.6,64,0.00,CLR,BKN,0.00,WeatherDisplay:10.37,2013-10-21 13:12:00,
2013-10-21 15:16:00,69.3,57.0,30.08,SW,225,5.8,5.8,65,0.00,CLR,BKN,0.00,WeatherDisplay:10.37,2013-10-21 13:16:00,
2013-10-21 15:21:00,69.1,56.4,30.09,South,180,6.9,6.9,64,0.00,CLR,BKN,0.00,WeatherDisplay:10.37,2013-10-21 13:21:00,
2013-10-21 15:26:00,69.1,56.4,30.09,SW,225,4.6,4.6,64,0.00,CLR,BKN,0.00,WeatherDisplay:10.37,2013-10-21 13:26:00,
2013-10-21 15:31:00,69.3,56.1,30.09,SW,225,6.0,6.0,63,0.00,CLR,BKN,0.00,WeatherDisplay:10.37,2013-10-21 13:31:00,
2013-10-21 15:36:00,69.4,56.3,30.08,South,180,5.8,5.8,63,0.00,CLR,BKN,0.00,WeatherDisplay:10.37,2013-10-21 13:36:00,
2013-10-21 15:42:00,69.6,56.5,30.08,SW,225,5.8,5.8,63,0.00,CLR,BKN,0.00,WeatherDisplay:10.37,2013-10-21 13:42:00,
2013-10-21 15:46:00,69.6,56.0,30.09,SW,225,5.8,5.8,62,0.00,CLR,BKN,0.00,WeatherDisplay:10.37,2013-10-21 13:46:00,
2013-10-21 15:51:00,69.6,56.0,30.09,SW,225,5.8,5.8,62,0.00,CLR,BKN,0.00,WeatherDisplay:10.37,2013-10-21 13:51:00,
2013-10-21 15:56:00,69.6,56.0,30.09,SW,225,5.8,5.8,62,0.00,CLR,BKN,0.00,WeatherDisplay:10.37,2013-10-21 13:56:00,
2013-10-21 16:01:00,69.6,56.0,30.09,SW,225,3.8,3.8,62,0.00,CLR,BKN,0.00,WeatherDisplay:10.37,2013-10-21 14:01:00,
2013-10-21 16:06:00,69.6,56.0,30.09,SW,225,3.8,3.8,62,0.00,CLR,BKN,0.00,WeatherDisplay:10.37,2013-10-21 14:06:00,
2013-10-21 16:11:00,70.0,55.9,30.08,South,180,5.8,5.8,61,0.00,CLR,BKN,0.00,WeatherDisplay:10.37,2013-10-21 14:11:00,
2013-10-21 16:16:00,69.8,55.3,30.08,SW,225,5.8,5.8,60,0.00,CLR,BKN,0.00,WeatherDisplay:10.37,2013-10-21 14:16:00,
2013-10-21 16:21:00,69.8,55.7,30.09,SW,225,5.8,5.8,61,0.00,CLR,BKN,0.00,WeatherDisplay:10.37,2013-10-21 14:21:00,
2013-10-21 16:27:00,69.4,55.9,30.09,SW,225,5.8,5.8,62,0.00,CLR,BKN,0.00,WeatherDisplay:10.37,2013-10-21 14:27:00,
2013-10-21 16:31:00,69.3,55.7,30.10,SW,225,5.8,5.8,62,0.00,CLR,BKN,0.00,WeatherDisplay:10.37,2013-10-21 14:31:00,
2013-10-21 16:36:00,69.1,55.5,30.09,SW,225,5.4,5.4,62,0.00,CLR,BKN,0.00,WeatherDisplay:10.37,2013-10-21 14:36:00,
2013-10-21 16:41:00,68.7,55.2,30.09,South,180,5.8,5.8,62,0.00,CLR,BKN,0.00,WeatherDisplay:10.37,2013-10-21 14:41:00,
2013-10-21 16:46:00,68.5,55.0,30.09,South,180,5.8,5.8,62,0.00,CLR,BKN,0.00,WeatherDisplay:10.37,2013-10-21 14:46:00,
2013-10-21 16:51:00,68.4,54.8,30.09,SSW,202,5.8,5.8,62,0.00,CLR,BKN,0.00,WeatherDisplay:10.37,2013-10-21 14:51:00,
2013-10-21 16:56:00,68.0,54.5,30.09,SE,135,5.8,5.8,62,0.00,CLR,BKN,0.00,WeatherDisplay:10.37,2013-10-21 14:56:00,
2013-10-21 17:01:00,67.8,55.2,30.09,South,180,6.9,6.9,64,0.00,CLR,BKN,0.00,WeatherDisplay:10.37,2013-10-21 15:01:00,
2013-10-21 17:06:00,67.5,54.9,30.09,SW,225,8.1,8.1,64,0.00,CLR,BKN,0.00,WeatherDisplay:10.37,2013-10-21 15:06:00,
2013-10-21 17:11:00,67.1,54.5,30.10,South,180,9.2,9.2,64,0.00,CLR,BKN,0.00,WeatherDisplay:10.37,2013-10-21 15:11:00,
2013-10-21 17:17:00,66.9,54.8,30.10,SW,225,6.9,6.9,65,0.00,CLR,BKN,0.00,WeatherDisplay:10.37,2013-10-21 15:17:00,
2013-10-21 17:21:00,66.7,54.6,30.11,SE,135,5.8,5.8,65,0.00,CLR,BKN,0.00,WeatherDisplay:10.37,2013-10-21 15:21:00,
2013-10-21 17:27:00,66.4,54.7,30.11,WSW,248,4.5,4.5,66,0.00,CLR,BKN,0.00,WeatherDisplay:10.37,2013-10-21 15:27:00,
2013-10-21 17:32:00,65.8,54.6,30.11,SW,225,3.5,3.5,67,0.00,CLR,BKN,0.00,WeatherDisplay:10.37,2013-10-21 15:32:00,
2013-10-21 17:37:00,65.7,54.8,30.11,SW,225,4.6,4.6,68,0.00,CLR,BKN,0.00,WeatherDisplay:10.37,2013-10-21 15:37:00,
2013-10-21 17:42:00,65.3,54.5,30.11,SW,225,3.5,3.5,68,0.00,CLR,BKN,0.00,WeatherDisplay:10.37,2013-10-21 15:42:00,
2013-10-21 17:47:00,64.8,54.3,30.10,SW,225,2.3,2.3,69,0.00,CLR,BKN,0.00,WeatherDisplay:10.37,2013-10-21 15:47:00,
2013-10-21 17:52:00,64.2,54.2,30.11,SW,225,1.6,1.6,70,0.00,CLR,BKN,0.00,WeatherDisplay:10.37,2013-10-21 15:52:00,
2013-10-21 17:57:00,63.7,54.1,30.11,SW,225,1.2,0.0,71,0.00,CLR,BKN,0.00,WeatherDisplay:10.37,2013-10-21 15:57:00,
2013-10-21 18:02:00,63.3,53.8,30.11,NW,315,0.0,0.0,71,0.00,CLR,BKN,0.00,WeatherDisplay:10.37,2013-10-21 16:02:00,
2013-10-21 18:07:00,63.3,53.8,30.11,NW,315,0.0,0.0,71,0.00,CLR,BKN,0.00,WeatherDisplay:10.37,2013-10-21 16:07:00,
2013-10-21 18:12:00,62.1,53.3,30.11,NW,315,0.0,0.0,73,0.00,CLR,BKN,0.00,WeatherDisplay:10.37,2013-10-21 16:12:00,
2013-10-21 18:17:00,61.5,53.2,30.11,SE,135,0.0,0.0,74,0.00,CLR,BKN,0.00,WeatherDisplay:10.37,2013-10-21 16:17:00,
2013-10-21 18:22:00,61.0,53.0,30.11,SE,135,0.0,0.0,75,0.00,CLR,BKN,0.00,WeatherDisplay:10.37,2013-10-21 16:22:00,
2013-10-21 18:27:00,60.6,53.7,30.11,SE,135,0.0,0.0,78,0.00,CLR,BKN,0.00,WeatherDisplay:10.37,2013-10-21 16:27:00,
2013-10-21 18:32:00,60.1,53.5,30.11,SE,135,0.0,0.0,79,0.00,CLR,BKN,0.00,WeatherDisplay:10.37,2013-10-21 16:32:00,
2013-10-21 18:37:00,59.7,53.2,30.11,SE,135,0.0,0.0,79,0.00,CLR,BKN,0.00,WeatherDisplay:10.37,2013-10-21 16:37:00,
2013-10-21 18:42:00,59.4,53.2,30.11,SE,135,0.0,0.0,80,0.00,CLR,BKN,0.00,WeatherDisplay:10.37,2013-10-21 16:42:00,
2013-10-21 18:47:00,59.0,52.8,30.11,NW,315,0.0,0.0,80,0.00,CLR,BKN,0.00,WeatherDisplay:10.37,2013-10-21 16:47:00,
2013-10-21 18:52:00,58.8,53.3,30.11,NE,45,1.6,1.6,82,0.00,CLR,BKN,0.00,WeatherDisplay:10.37,2013-10-21 16:52:00,
2013-10-21 18:57:00,58.5,53.0,30.11,SE,135,2.3,0.0,82,0.00,CLR,BKN,0.00,WeatherDisplay:10.37,2013-10-21 16:57:00,
2013-10-21 19:02:00,58.1,52.6,30.11,SE,135,1.2,0.0,82,0.00,CLR,BKN,0.00,WeatherDisplay:10.37,2013-10-21 17:02:00,
2013-10-21 19:07:00,57.7,52.3,30.11,SE,135,1.2,0.0,82,0.00,CLR,BKN,0.00,WeatherDisplay:10.37,2013-10-21 17:07:00,
2013-10-21 19:12:00,57.4,52.3,30.11,SE,135,0.7,0.0,83,0.00,CLR,BKN,0.00,WeatherDisplay:10.37,2013-10-21 17:12:00,
2013-10-21 19:17:00,57.2,52.1,30.11,SE,135,3.5,3.5,83,0.00,CLR,BKN,0.00,WeatherDisplay:10.37,2013-10-21 17:17:00,
2013-10-21 19:22:00,56.8,52.4,30.11,SE,135,2.3,2.3,85,0.00,CLR,BKN,0.00,WeatherDisplay:10.37,2013-10-21 17:22:00,
2013-10-21 19:27:00,56.7,52.2,30.11,SW,225,2.3,2.3,85,0.00,CLR,BKN,0.00,WeatherDisplay:10.37,2013-10-21 17:27:00,
2013-10-21 19:32:00,56.3,51.8,30.11,NW,315,2.3,2.3,85,0.00,CLR,BKN,0.00,WeatherDisplay:10.37,2013-10-21 17:32:00,
2013-10-21 19:37:00,56.3,51.8,30.11,North,0,2.3,2.3,85,0.00,CLR,BKN,0.00,WeatherDisplay:10.37,2013-10-21 17:37:00,
2013-10-21 19:42:00,56.3,52.2,30.11,SE,135,1.6,1.6,86,0.00,CLR,BKN,0.00,WeatherDisplay:10.37,2013-10-21 17:42:00,
2013-10-21 19:47:00,56.1,52.0,30.11,SE,135,1.6,1.6,86,0.00,CLR,BKN,0.00,WeatherDisplay:10.37,2013-10-21 17:47:00,
2013-10-21 19:52:00,55.9,52.1,30.11,East,90,1.6,1.6,87,0.00,CLR,BKN,0.00,WeatherDisplay:10.37,2013-10-21 17:52:00,
2013-10-21 19:57:00,55.8,51.9,30.11,East,90,2.3,2.3,87,0.00,CLR,BKN,0.00,WeatherDisplay:10.37,2013-10-21 17:57:00,
2013-10-21 20:02:00,55.6,51.8,30.11,SE,135,1.6,1.6,87,0.00,CLR,BKN,0.00,WeatherDisplay:10.37,2013-10-21 18:02:00,
2013-10-21 20:07:00,55.6,51.8,30.11,SE,135,1.6,1.6,87,0.00,CLR,BKN,0.00,WeatherDisplay:10.37,2013-10-21 18:07:00,
2013-10-21 20:12:00,55.2,51.7,30.11,South,180,1.2,0.0,88,0.00,CLR,BKN,0.00,WeatherDisplay:10.37,2013-10-21 18:12:00,
2013-10-21 20:17:00,55.0,51.5,30.11,South,180,1.6,1.6,88,0.00,CLR,BKN,0.00,WeatherDisplay:10.37,2013-10-21 18:17:00,
2013-10-21 20:22:00,55.0,51.5,30.11,South,180,2.3,2.3,88,0.00,CLR,BKN,0.00,WeatherDisplay:10.37,2013-10-21 18:22:00,
2013-10-21 20:27:00,54.7,51.2,30.10,South,180,3.1,3.1,88,0.00,CLR,BKN,0.00,WeatherDisplay:10.37,2013-10-21 18:27:00,
2013-10-21 20:32:00,54.5,51.0,30.11,SW,225,3.5,3.5,88,0.00,CLR,BKN,0.00,WeatherDisplay:10.37,2013-10-21 18:32:00,
2013-10-21 20:37:00,54.5,51.3,30.11,SW,225,3.5,3.5,89,0.00,CLR,BKN,0.00,WeatherDisplay:10.37,2013-10-21 18:37:00,
2013-10-21 20:42:00,54.5,51.3,30.11,SW,225,2.3,0.0,89,0.00,CLR,BKN,0.00,WeatherDisplay:10.37,2013-10-21 18:42:00,
2013-10-21 20:47:00,54.5,51.3,30.11,NE,45,1.6,1.6,89,0.00,CLR,BKN,0.00,WeatherDisplay:10.37,2013-10-21 18:47:00,
2013-10-21 20:52:00,54.3,51.1,30.11,NE,45,4.6,4.6,89,0.00,CLR,BKN,0.00,WeatherDisplay:10.37,2013-10-21 18:52:00,
2013-10-21 20:57:00,54.3,51.4,30.11,NE,45,3.5,0.0,90,0.00,CLR,BKN,0.00,WeatherDisplay:10.37,2013-10-21 18:57:00,
2013-10-21 21:02:00,54.1,51.0,30.11,North,0,3.1,3.1,89,0.00,CLR,BKN,0.00,WeatherDisplay:10.37,2013-10-21 19:02:00,
2013-10-21 21:07:00,54.0,50.8,30.11,North,0,3.5,3.5,89,0.00,CLR,BKN,0.00,WeatherDisplay:10.37,2013-10-21 19:07:00,
2013-10-21 21:12:00,53.8,50.6,30.11,NE,45,2.3,2.3,89,0.00,CLR,BKN,0.00,WeatherDisplay:10.37,2013-10-21 19:12:00,
2013-10-21 21:17:00,53.6,50.7,30.11,SW,225,1.2,0.0,90,0.00,CLR,BKN,0.00,WeatherDisplay:10.37,2013-10-21 19:17:00,
2013-10-21 21:22:00,53.4,50.9,30.11,South,180,1.6,0.0,91,0.00,CLR,BKN,0.00,WeatherDisplay:10.37,2013-10-21 19:22:00,
2013-10-21 21:27:00,53.2,50.7,30.11,West,270,1.6,1.6,91,0.00,CLR,BKN,0.00,WeatherDisplay:10.37,2013-10-21 19:27:00,
2013-10-21 21:32:00,53.1,50.5,30.11,North,0,1.6,1.6,91,0.00,CLR,BKN,0.00,WeatherDisplay:10.37,2013-10-21 19:32:00,
2013-10-21 21:37:00,53.1,50.5,30.11,North,0,2.3,2.3,91,0.00,CLR,BKN,0.00,WeatherDisplay:10.37,2013-10-21 19:37:00,
2013-10-21 21:42:00,52.9,50.3,30.12,North,0,2.3,2.3,91,0.00,CLR,BKN,0.00,WeatherDisplay:10.37,2013-10-21 19:42:00,
2013-10-21 21:47:00,52.7,50.1,30.12,South,180,1.2,0.0,91,0.00,CLR,BKN,0.00,WeatherDisplay:10.37,2013-10-21 19:47:00,
2013-10-21 21:52:00,52.5,50.0,30.12,South,180,1.6,1.6,91,0.00,CLR,BKN,0.00,WeatherDisplay:10.37,2013-10-21 19:52:00,
2013-10-21 21:57:00,52.3,50.1,30.12,North,0,0.0,0.0,92,0.00,CLR,BKN,0.00,WeatherDisplay:10.37,2013-10-21 19:57:00,
2013-10-21 22:02:00,52.2,49.9,30.12,North,0,1.6,1.6,92,0.00,CLR,BKN,0.00,WeatherDisplay:10.37,2013-10-21 20:02:00,
2013-10-21 22:07:00,52.2,49.9,30.11,North,0,1.2,1.2,92,0.00,CLR,BKN,0.00,WeatherDisplay:10.37,2013-10-21 20:07:00,
2013-10-21 22:12:00,52.0,49.7,30.11,SSW,202,1.2,0.0,92,0.00,CLR,BKN,0.00,WeatherDisplay:10.37,2013-10-21 20:12:00,
2013-10-21 22:17:00,51.6,49.7,30.11,SSW,202,0.0,0.0,93,0.00,CLR,BKN,0.00,WeatherDisplay:10.37,2013-10-21 20:17:00,
2013-10-21 22:22:00,51.6,49.7,30.11,NW,315,2.3,2.3,93,0.00,CLR,BKN,0.00,WeatherDisplay:10.37,2013-10-21 20:22:00,
2013-10-21 22:27:00,51.4,49.5,30.11,NW,315,1.2,0.0,93,0.00,CLR,BKN,0.00,WeatherDisplay:10.37,2013-10-21 20:27:00,
2013-10-21 22:32:00,51.4,49.5,30.11,NW,315,1.6,1.6,93,0.00,CLR,BKN,0.00,WeatherDisplay:10.37,2013-10-21 20:32:00,
2013-10-21 22:37:00,51.3,49.6,30.11,SE,135,1.6,1.6,94,0.00,CLR,BKN,0.00,WeatherDisplay:10.37,2013-10-21 20:37:00,
2013-10-21 22:42:00,51.3,49.6,30.11,SE,135,1.6,1.6,94,0.00,CLR,BKN,0.00,WeatherDisplay:10.37,2013-10-21 20:42:00,
2013-10-21 22:47:00,51.1,49.4,30.12,SE,135,1.2,0.0,94,0.00,CLR,BKN,0.00,WeatherDisplay:10.37,2013-10-21 20:47:00,
2013-10-21 22:52:00,50.9,49.2,30.12,SE,135,1.2,0.0,94,0.00,CLR,BKN,0.00,WeatherDisplay:10.37,2013-10-21 20:52:00,
2013-10-21 22:57:00,50.7,49.1,30.11,SE,135,0.0,0.0,94,0.00,CLR,BKN,0.00,WeatherDisplay:10.37,2013-10-21 20:57:00,
2013-10-21 23:02:00,50.5,48.9,30.11,West,270,1.2,0.0,94,0.00,CLR,BKN,0.00,WeatherDisplay:10.37,2013-10-21 21:02:00,
2013-10-21 23:07:00,50.5,48.9,30.11,West,270,0.0,0.0,94,0.00,CLR,BKN,0.00,WeatherDisplay:10.37,2013-10-21 21:07:00,
2013-10-21 23:12:00,50.4,48.7,30.11,West,270,1.2,1.2,94,0.00,CLR,BKN,0.00,WeatherDisplay:10.37,2013-10-21 21:12:00,
2013-10-21 23:17:00,50.4,48.7,30.11,NE,45,1.2,0.0,94,0.00,CLR,BKN,0.00,WeatherDisplay:10.37,2013-10-21 21:17:00,
2013-10-21 23:22:00,50.2,48.5,30.11,North,0,1.2,0.0,94,0.00,CLR,BKN,0.00,WeatherDisplay:10.37,2013-10-21 21:22:00,
2013-10-21 23:27:00,50.0,48.3,30.11,North,0,1.2,0.0,94,0.00,CLR,BKN,0.00,WeatherDisplay:10.37,2013-10-21 21:27:00,
2013-10-21 23:32:00,50.0,48.3,30.11,North,0,0.0,0.0,94,0.00,CLR,BKN,0.00,WeatherDisplay:10.37,2013-10-21 21:32:00,
2013-10-21 23:37:00,49.8,48.4,30.11,North,0,1.6,1.6,95,0.00,CLR,BKN,0.00,WeatherDisplay:10.37,2013-10-21 21:37:00,
2013-10-21 23:42:00,49.6,48.3,30.11,East,90,1.2,0.0,95,0.00,CLR,BKN,0.00,WeatherDisplay:10.37,2013-10-21 21:42:00,
2013-10-21 23:47:00,49.6,48.3,30.11,North,0,0.0,0.0,95,0.00,CLR,BKN,0.00,WeatherDisplay:10.37,2013-10-21 21:47:00,
2013-10-21 23:52:00,49.5,48.1,30.11,North,0,0.0,0.0,95,0.00,CLR,BKN,0.00,WeatherDisplay:10.37,2013-10-21 21:52:00,
2013-10-21 23:57:00,49.5,48.4,30.11,South,180,1.6,1.6,96,0.00,CLR,BKN,0.00,WeatherDisplay:10.37,2013-10-21 21:57:00,